Dewpoint
70 70 70 71 70 71 72 71 69 67 67 67 69 67 65 64 63 66 64 64 62 62 64 62 61 61 59 58 59 58 58 58 55 56 56 54 58 56 56 60 59 58 59
71 71 71 71 71 70 70 72 70 68 67 67 68 68 66 65 64 64 64 63 63 62 61 63 62 62 61 60 58 58 57 58 56 53 56 57 57 57 57 58 58 60 60
70 71 72 72 72 71 70 70 71 69 68 68 68 68 66 65 65 65 64 64 62 62 63 62 61 60 60 60 59 59 60 61 59 58 56 58 57 57 57 57 57 57 58
71 70 70 72 73 72 71 70 71 71 69 68 68 68 67 65 64 66 65 64 63 62 63 63 63 61 60 59 60 61 61 60 60 59 59 58 58 57 58 55 54 56 56
71 71 71 71 72 73 72 71 70 72 70 69 69 68 67 66 65 64 65 64 63 63 63 63 64 63 62 61 60 61 60 59 59 58 58 57 56 55 55 56 56 56 57
71 71 72 72 71 72 72 72 72 71 72 70 68 68 67 66 65 65 65 64 63 63 62 63 63 63 63 62 64 62 61 60 58 58 58 57 56 55 57 57 56 56 53
70 71 71 72 72 72 72 72 73 72 71 71 69 68 67 67 65 64 65 64 64 64 63 62 63 64 63 63 62 62 62 61 60 59 57 56 56 56 55 56 56 56 55
69 70 71 71 71 72 72 72 72 73 71 72 70 69 68 68 66 64 64 65 64 64 64 63 62 63 63 62 61 61 61 61 61 61 59 57 58 57 57 58 58 57 55
67 69 70 71 71 71 71 72 72 72 73 72 72 70 69 68 66 63 64 64 64 64 64 64 64 63 62 61 60 59 60 60 62 61 60 60 59 59 59 58 57 55 52
64 66 69 70 70 70 71 71 72 72 72 72 73 71 69 69 65 63 65 64 63 63 63 63 63 62 59 57 57 59 58 58 59 59 58 57 57 56 56 56 54 52 52
63 64 66 69 69 70 70 71 71 72 72 73 72 70 69 68 64 62 63 63 62 61 60 60 62 60 57 56 58 59 58 58 58 56 54 52 51 51 51 53 55 53 49
62 63 64 67 68 69 70 71 71 72 72 70 68 67 67 66 63 61 61 61 61 59 59 59 61 61 59 58 58 59 59 58 55 53 50 49 49 50 49 47 47 48 53
62 62 66 67 67 70 71 72 72 71 70 68 68 66 66 66 64 63 61 61 61 61 61 61 60 60 59 58 58 58 57 55 53 50 48 49 51 51 48 43 43 42 40
65 66 70 70 72 72 72 72 71 70 68 67 67 66 65 65 64 62 61 59 59 61 61 58 57 56 56 56 56 56 55 53 51 49 49 51 52 47 42 43 39 37 36
72 73 73 72 71 66 61 66 68 66 68 66 65 65 64 64 63 62 61 59 59 59 58 56 56 56 55 54 54 53 53 51 50 51 51 52 51 43 41 41 38 37 34
70 68 66 64 62 60 60 58 53 60 64 64 65 64 62 64 63 61 60 59 59 58 58 57 56 54 53 53 52 52 52 52 51 51 52 51 45 42 40 36 38 35 33
67 65 64 63 63 63 62 61 59 54 55 60 62 62 63 63 61 60 58 57 57 58 56 56 56 55 55 54 55 54 53 54 53 52 47 44 39 35 35 36 33 33 32
65 65 65 64 64 64 63 61 60 61 59 57 52 56 56 58 58 56 54 53 53 54 55 55 55 55 53 51 51 49 50 50 48 39 35 34 33 35 36 32 30 31 32
64 64 64 63 63 61 60 59 59 58 56 53 51 50 47 51 52 51 51 53 52 52 51 51 50 48 47 45 44 44 43 41 39 37 34 34 36 35 32 30 30 32 32
64 63 63 62 62 61 60 59 58 57 55 53 53 52 48 51 52 51 51 52 52 51 50 48 46 45 44 44 43 42 41 39 38 38 37 37 34 33 30 31 32 30 32
63 63 62 62 62 62 60 59 59 58 55 54 54 52 51 53 52 51 51 50 50 49 47 45 44 44 44 44 42 40 37 35 32 33 35 31 31 29 33 32 31 33 32
59 61 62 61 61 61 61 59 58 58 56 54 53 51 49 51 51 50 49 49 50 49 46 45 44 43 44 43 42 38 34 30 32 33 31 31 31 32 33 33 32 32 29
56 56 57 57 56 56 56 58 58 57 55 54 52 50 49 51 51 50 50 50 50 50 47 45 42 41 41 40 36 32 29 31 33 33 32 30 30 30 32 32 32 29 28
55 55 54 55 54 54 54 55 56 56 56 54 53 51 50 51 51 51 51 51 51 49 47 44 41 38 35 32 29 28 33 34 34 32 30 26 24 29 29 31 30 27 29
55 55 55 55 54 53 53 53 55 55 54 53 52 51 50 50 50 52 53 52 50 47 45 43 39 36 32 30 28 30 32 29 23 22 24 25 23 23 29 33 29 29 29
55 55 55 54 55 55 55 55 54 53 52 51 51 51 50 50 50 51 51 50 48 47 47 43 38 34 32 28 26 27 26 22 21 20 19 18 18 26 30 33 31 28 26
Wind_Speed
32 30 28 25 24 23 23 21 22 21 21 21 22 21 21 21 20 20 20 19 16 17 12 14 15 9 9 7 3 0 4 4 5 3 5 2 4 7 8 7 12 13 14
32 31 29 26 25 26 27 22 20 24 22 23 22 23 22 22 21 22 23 19 22 21 18 15 17 11 14 10 7 7 5 6 4 7 3 4 8 8 7 10 8 7 8
31 30 28 28 27 30 29 26 21 23 21 21 22 24 24 22 21 21 21 23 23 20 18 18 18 13 12 10 9 9 8 3 3 3 6 3 4 6 8 5 5 5 5
33 32 31 30 32 31 29 26 25 23 21 22 22 22 22 22 23 22 22 23 18 20 18 18 18 17 17 15 11 12 4 4 4 4 9 9 6 5 3 7 8 3 10
35 34 35 33 31 29 27 26 24 24 22 21 21 20 20 22 22 24 23 21 21 21 18 16 15 16 19 16 14 10 6 9 3 1 10 14 14 12 10 5 6 9 9
34 36 34 32 30 30 28 26 24 24 24 21 23 23 23 22 25 28 24 21 20 21 21 16 13 14 19 20 14 12 11 11 8 3 11 18 18 13 7 9 9 6 6
36 32 32 31 32 31 28 26 26 27 22 22 21 22 24 25 27 31 28 17 19 19 18 19 16 13 17 12 12 12 13 15 12 10 18 16 18 15 9 10 11 9 12
35 32 31 31 32 30 28 29 26 25 26 23 23 24 24 24 26 28 26 17 17 18 20 20 19 16 13 14 13 14 15 17 18 19 18 21 17 18 11 12 12 9 7
32 33 33 32 31 30 31 29 26 24 24 23 24 23 25 21 27 28 24 17 16 17 15 15 16 16 15 16 14 15 15 17 12 18 19 19 18 18 16 6 12 10 12
37 37 36 33 31 32 30 28 25 25 26 23 21 21 24 22 25 27 24 17 15 15 13 12 15 16 16 16 17 16 15 18 10 8 6 6 7 9 9 9 9 12 12
38 33 28 31 32 30 26 24 25 25 20 21 20 17 18 19 21 25 23 16 16 15 13 14 13 15 17 16 18 15 17 8 7 5 6 8 8 9 9 8 6 7 8
27 27 26 28 28 24 27 24 23 22 22 21 21 17 13 13 18 22 23 18 14 14 15 14 12 14 17 20 17 16 12 9 6 6 6 9 8 8 6 6 6 6 9
27 27 27 26 26 26 28 25 24 23 23 20 17 15 17 14 15 23 23 23 16 13 10 11 11 9 10 10 10 9 11 10 8 6 8 8 6 6 6 4 4 5 8
30 28 26 28 27 26 25 27 26 25 22 20 25 22 17 16 17 16 18 15 14 11 10 7 6 4 2 2 1 5 9 10 10 10 9 7 4 4 4 3 5 8 8
27 23 22 21 21 21 17 12 16 10 19 23 19 20 19 15 15 18 19 17 16 16 13 6 4 5 6 6 6 7 9 10 12 11 9 6 7 5 6 3 5 6 7
26 30 24 23 21 19 19 23 19 19 14 16 21 21 12 13 18 18 17 17 18 19 9 10 10 10 11 11 11 11 10 12 13 11 8 6 6 5 6 6 4 5 10
29 22 19 21 23 24 22 27 19 13 19 16 22 22 20 19 20 21 16 12 15 16 8 11 11 11 13 13 13 12 11 9 7 7 5 4 4 4 4 6 5 7 12
18 22 21 18 22 19 18 29 27 19 21 16 10 17 20 23 21 21 20 17 11 6 8 9 8 10 11 10 9 8 7 8 8 8 5 2 2 4 4 5 7 9 12
17 10 19 16 17 20 16 20 20 9 11 15 13 12 11 20 27 22 18 11 13 12 9 7 7 11 12 11 11 9 10 9 7 5 4 5 3 2 3 5 9 12 10
21 17 16 17 18 16 21 24 17 14 15 15 15 16 13 12 15 15 10 11 11 8 7 11 16 15 15 14 13 11 9 7 6 5 4 5 2 2 2 6 7 9 14
15 15 18 17 16 15 17 18 16 18 17 15 15 16 21 19 18 16 15 15 13 10 17 19 17 16 15 14 12 10 7 5 2 1 5 6 4 1 5 5 7 10 11
11 14 15 14 13 16 17 17 17 16 18 17 14 12 19 12 13 16 17 16 13 13 16 20 18 16 16 16 13 10 8 5 3 8 7 5 3 4 5 6 10 11 12
12 16 14 11 10 13 16 17 18 17 15 14 15 16 16 14 15 17 18 15 14 15 17 17 17 14 12 13 11 11 10 10 12 12 10 5 2 1 3 7 9 9 11
11 13 16 16 16 15 16 16 16 15 17 18 19 18 19 19 17 18 16 14 14 15 17 16 17 19 17 14 11 9 10 12 11 10 9 6 3 1 3 6 6 8 10
10 8 10 11 17 20 14 11 10 11 15 17 18 18 14 15 18 15 16 16 17 17 18 18 16 21 21 19 17 15 14 15 12 10 7 6 4 3 1 4 5 8 7
15 16 14 15 15 15 16 14 13 13 13 13 15 15 16 19 18 14 13 15 20 18 14 15 19 23 21 18 19 20 19 17 13 11 8 7 6 5 1 4 5 3 6
Wind_Direction
192 193 193 197 200 201 208 203 198 196 198 187 190 188 190 191 190 191 198 202 211 219 222 222 235 224 226 230 214 34 228 187 233 271 238 263 247 241 266 257 252 253 266
190 191 194 193 193 201 210 208 196 200 196 193 189 190 191 194 193 196 203 206 211 216 223 220 230 238 236 235 229 229 235 207 190 266 288 278 239 260 260 293 278 264 276
189 190 193 194 194 204 210 208 201 205 196 191 189 192 193 193 197 200 204 207 210 216 217 223 229 222 232 224 225 233 230 243 200 239 288 297 290 314 319 298 289 302 305
191 191 194 195 199 203 208 206 205 202 201 196 193 191 192 194 199 202 206 210 206 212 212 219 225 226 233 233 234 247 241 299 300 355 314 294 294 294 295 286 289 304 308
191 192 197 199 200 203 206 206 205 205 203 197 194 193 191 195 202 203 207 208 203 208 212 218 223 226 230 225 229 226 219 249 226 304 312 297 290 281 260 255 261 289 293
194 198 196 198 198 202 203 202 200 201 203 190 193 193 191 200 209 205 204 205 201 205 213 217 223 233 235 234 210 200 209 216 208 210 273 268 275 265 237 247 248 268 301
198 199 198 196 198 200 200 198 199 201 194 196 190 190 198 205 208 208 206 193 192 201 212 213 222 227 229 211 191 179 190 200 198 220 247 251 267 264 266 276 275 275 276
197 197 199 198 199 198 196 200 198 196 199 193 194 196 201 207 205 205 197 189 196 206 207 212 221 224 209 188 189 193 197 205 218 226 232 253 246 264 249 267 282 275 273
197 199 199 200 197 195 199 197 194 194 197 197 200 195 199 203 202 196 180 187 192 206 206 210 217 224 208 194 199 220 241 245 245 244 245 251 259 269 267 248 273 272 286
200 202 197 195 195 195 197 195 191 193 198 195 194 193 194 200 196 186 179 179 186 195 202 210 221 220 203 206 229 231 241 252 233 246 242 260 268 275 287 239 260 271 277
205 204 195 192 193 195 190 188 191 191 183 183 181 176 186 189 187 177 172 174 195 201 212 226 228 225 228 232 225 228 240 234 229 228 274 288 294 295 299 295 231 235 259
201 195 195 191 190 185 184 185 182 174 171 165 158 157 156 171 164 173 178 188 186 196 215 222 223 231 244 239 236 237 229 203 199 228 264 280 296 305 312 298 297 277 251
186 188 184 182 184 179 175 171 168 168 169 168 160 152 161 167 174 188 193 201 194 200 206 231 227 231 244 250 244 234 195 204 211 232 258 275 275 285 301 312 302 277 276
174 178 178 174 169 170 171 170 168 167 160 159 155 174 170 173 171 181 201 204 195 192 186 160 163 165 164 243 227 196 205 208 214 227 239 258 285 280 283 271 295 311 312
146 151 157 150 145 132 114 138 157 149 171 153 149 156 160 167 185 179 192 193 190 191 157 151 194 212 222 224 218 218 220 217 230 239 250 254 274 250 277 273 298 310 308
139 138 138 129 123 113 103 88 65 109 111 121 137 147 138 160 165 175 187 185 169 155 166 198 215 220 223 224 230 236 230 230 235 233 237 253 237 257 272 303 299 304 310
137 127 119 130 122 118 117 105 91 67 89 117 132 142 148 162 165 159 169 165 155 159 190 196 209 213 228 236 247 233 231 223 203 214 209 206 205 264 288 299 318 319 323
96 126 131 149 126 131 150 130 142 149 151 138 110 141 148 149 149 143 144 130 150 188 194 198 206 217 225 199 164 159 142 132 145 150 165 226 273 268 290 310 321 320 318
110 104 110 111 116 134 127 109 112 141 129 128 117 84 92 126 136 148 154 158 185 198 194 188 197 176 156 143 138 135 140 154 163 175 205 199 233 229 296 305 315 321 322
111 120 117 122 126 131 123 121 131 147 157 142 143 146 149 128 148 172 167 164 185 188 195 171 157 147 144 147 151 151 156 167 183 207 231 210 185 182 314 323 330 328 325
117 122 121 127 134 130 116 131 156 156 160 175 176 175 170 171 177 177 184 189 188 179 158 157 157 160 161 160 156 158 168 161 165 264 167 159 174 49 359 336 327 328 333
123 140 145 144 139 135 145 155 165 176 178 180 180 175 179 169 170 186 196 200 189 179 165 164 166 170 170 168 168 170 169 174 200 160 162 177 139 64 22 5 342 340 344
109 130 124 127 134 134 159 177 169 179 173 161 159 168 181 192 187 195 201 196 194 184 178 166 157 156 160 159 164 168 173 172 168 159 163 172 177 14 14 354 338 339 343
86 102 107 106 106 114 131 154 172 170 161 165 166 171 184 193 199 204 201 194 187 183 177 175 162 161 166 162 160 180 169 155 162 172 168 177 205 254 337 341 337 330 333
131 127 129 134 130 127 113 107 127 165 174 168 169 176 189 209 190 204 217 193 181 179 181 176 169 166 168 174 166 164 163 161 170 175 178 190 196 215 302 323 328 327 350
115 121 123 120 126 130 139 159 193 198 173 178 176 182 186 190 195 208 198 190 183 183 186 174 174 173 178 171 167 168 173 184 188 193 184 187 189 193 238 318 306 328 6